Weather History for Savoonga, AK

Change the Weather History Date:

Sunday, October 30, 2011

  Actual Average Record
Temperature  
Mean Temperature 28 °F -  
Max Temperature 30 °F 30 °F 41 °F (2003)
Min Temperature 26 °F 25 °F 15 °F (1997)
Degree Days  
Heating Degree Days 37    
Moisture  
Dew Point 20 °F    
Average Humidity 71    
Maximum Humidity 93    
Minimum Humidity 55    
Precipitation  
Precipitation 0.00 in - - ()
Sea Level Pressure  
Sea Level Pressure 29.75 in    
Wind  
Wind Speed 15 mph (NE)    
Max Wind Speed 23 mph    
Max Gust Speed 28 mph    
Visibility 9 miles    
Events      
Averages and records for this station are not official NWS values.
T = Trace of Precipitation, MM = Missing Value Source: NWS Daily Summary

Daily Weather History Graph

Daily Weather History Graph

Search for Another Location

Airport:

Trip Planner

Search our weather history database for the weather conditions in past years. The results will help you decide how hot, cold, wet, or windy it might be!

Date:

Astronomy

Oct. 30, 2011 Rise Set
Actual Time 10:56 AM AKDT 7:13 PM AKDT
Civil Twilight 10:04 AM AKDT 8:05 PM AKDT
Nautical Twilight 9:08 AM AKDT 9:00 PM AKDT
Astronomical Twilight 8:14 AM AKDT 9:55 PM AKDT
Moon 4:42 PM AKDT (10/30) 9:46 PM AKDT (10/30)
Length of Visible Light 10h 00m
Length of Day
8h 17m
Waxing Crescent, 21% of the Moon is Illuminated
Oct 30
Waxing Crescent
Nov 2
First Quarter
Nov 10
Full
Nov 18
Last Quarter
Nov 24
New

Hourly Weather History & Observations

Time (AKDT) Temp. Windchill Dew Point Humidity Pressure Visibility Wind Dir Wind Speed Gust Speed Precip Events Conditions
12:16 AM 28.4 °F 17.0 °F 17.6 °F 64% 29.64 in 10.0 mi ENE 15.0 mph - N/A   Mostly Cloudy
12:36 AM 28.4 °F 16.2 °F 17.6 °F 64% 29.65 in 10.0 mi NNE 17.3 mph 23.0 mph N/A   Overcast
12:56 AM 28.4 °F 17.0 °F 15.8 °F 59% 29.66 in 10.0 mi NE 15.0 mph 23.0 mph N/A   Scattered Clouds
1:16 AM 28.4 °F 15.8 °F 19.4 °F 69% 29.66 in 10.0 mi NE 18.4 mph 21.9 mph N/A   Mostly Cloudy
1:36 AM 28.4 °F 20.4 °F 21.2 °F 74% 29.67 in 5.0 mi NNE 8.1 mph 25.3 mph N/A   Mostly Cloudy
1:56 AM 28.4 °F 17.0 °F 19.4 °F 69% 29.67 in 7.0 mi NNE 15.0 mph 20.7 mph N/A   Mostly Cloudy
2:16 AM 28.4 °F 16.6 °F 21.2 °F 74% 29.68 in 8.0 mi North 16.1 mph - N/A   Overcast
2:36 AM 28.4 °F 17.0 °F 21.2 °F 74% 29.68 in 10.0 mi NE 15.0 mph 23.0 mph N/A   Mostly Cloudy
2:56 AM 28.4 °F 18.0 °F 19.4 °F 69% 29.69 in 10.0 mi NE 12.7 mph 17.3 mph N/A   Overcast
3:16 AM 30.2 °F 18.9 °F 15.8 °F 55% 29.69 in 10.0 mi NE 16.1 mph - N/A   Overcast
3:36 AM 28.4 °F 16.6 °F 14.0 °F 55% 29.70 in 10.0 mi NNE 16.1 mph 23.0 mph N/A   Overcast
3:56 AM 28.4 °F 18.5 °F 17.6 °F 64% 29.70 in 9.0 mi NE 11.5 mph 17.3 mph N/A   Overcast
4:16 AM 28.4 °F 16.6 °F 21.2 °F 74% 29.71 in 9.0 mi NNE 16.1 mph 19.6 mph N/A   Overcast
4:36 AM 26.6 °F 16.8 °F 19.4 °F 74% 29.72 in 10.0 mi NNE 10.4 mph - N/A   Mostly Cloudy
4:56 AM 26.6 °F 13.8 °F 21.2 °F 80% 29.72 in 9.0 mi NNE 17.3 mph - N/A   Mostly Cloudy
5:16 AM 26.6 °F 19.1 °F 21.2 °F 80% 29.73 in 10.0 mi NNE 6.9 mph - N/A   Mostly Cloudy
5:36 AM 28.4 °F 18.0 °F 15.8 °F 59% 29.72 in 10.0 mi North 12.7 mph - N/A   Mostly Cloudy
5:56 AM 26.6 °F 13.8 °F 23.0 °F 86% 29.73 in 4.0 mi NNE 17.3 mph 23.0 mph N/A   Mostly Cloudy
6:16 AM 26.6 °F 13.1 °F 21.2 °F 80% 29.73 in 8.0 mi NE 19.6 mph 23.0 mph N/A   Mostly Cloudy
6:36 AM 26.6 °F 16.2 °F 21.2 °F 80% 29.73 in 8.0 mi NNE 11.5 mph - N/A   Mostly Cloudy
6:56 AM 28.4 °F 20.4 °F 19.4 °F 69% 29.73 in 10.0 mi NNE 8.1 mph - N/A   Scattered Clouds
7:16 AM 28.4 °F 17.0 °F 19.4 °F 69% 29.74 in 10.0 mi North 15.0 mph - N/A   Mostly Cloudy
7:36 AM 28.4 °F 18.0 °F 17.6 °F 64% 29.74 in 10.0 mi NNE 12.7 mph - N/A   Mostly Cloudy
7:56 AM 28.4 °F 17.0 °F 19.4 °F 69% 29.74 in 10.0 mi NE 15.0 mph 23.0 mph N/A   Scattered Clouds
8:16 AM 26.6 °F 14.7 °F 21.2 °F 80% 29.75 in 10.0 mi NE 15.0 mph - N/A   Partly Cloudy
8:36 AM 26.6 °F 16.2 °F 17.6 °F 69% 29.75 in 10.0 mi NE 11.5 mph - N/A   Clear
8:56 AM 26.6 °F 15.7 °F 17.6 °F 69% 29.75 in 10.0 mi NE 12.7 mph 16.1 mph N/A   Scattered Clouds
9:16 AM 28.4 °F 18.0 °F 15.8 °F 59% 29.76 in 10.0 mi NE 12.7 mph 16.1 mph N/A   Mostly Cloudy
9:36 AM 28.4 °F 18.0 °F 17.6 °F 64% 29.76 in 10.0 mi NNE 12.7 mph - N/A   Mostly Cloudy
9:56 AM 26.6 °F 15.7 °F 21.2 °F 80% 29.77 in 5.0 mi NNE 12.7 mph 25.3 mph N/A   Mostly Cloudy
10:16 AM 28.4 °F 17.5 °F 19.4 °F 69% 29.77 in 10.0 mi NNE 13.8 mph - N/A   Mostly Cloudy
10:36 AM 26.6 °F 14.3 °F 24.8 °F 93% 29.77 in 2.5 mi NNE 16.1 mph - N/A   Mostly Cloudy
10:56 AM 28.4 °F 15.8 °F 17.6 °F 64% 29.77 in 10.0 mi NNE 18.4 mph 25.3 mph N/A   Mostly Cloudy
11:16 AM 28.4 °F 15.8 °F 17.6 °F 64% 29.77 in 10.0 mi NE 18.4 mph 25.3 mph N/A   Partly Cloudy
11:36 AM 28.4 °F 16.2 °F 17.6 °F 64% 29.78 in 10.0 mi NE 17.3 mph 24.2 mph N/A   Partly Cloudy
11:56 AM 28.4 °F 15.8 °F 15.8 °F 59% 29.78 in 10.0 mi NNE 18.4 mph - N/A   Clear
12:36 PM 28.4 °F 15.4 °F 24.8 °F 86% 29.79 in 4.0 mi NE 19.6 mph - N/A   Overcast
12:56 PM 28.4 °F 15.1 °F 19.4 °F 69% 29.79 in 10.0 mi NE 20.7 mph 24.2 mph N/A   Scattered Clouds
1:16 PM 28.4 °F 15.8 °F 15.8 °F 59% 29.79 in 10.0 mi NE 18.4 mph 25.3 mph N/A   Partly Cloudy
1:36 PM 28.4 °F 15.8 °F 17.6 °F 64% 29.80 in 10.0 mi NE 18.4 mph 25.3 mph N/A   Clear
1:56 PM 28.4 °F 15.8 °F 19.4 °F 69% 29.80 in 10.0 mi ENE 18.4 mph - N/A   Scattered Clouds
2:16 PM 28.4 °F 16.2 °F 19.4 °F 69% 29.80 in 10.0 mi ENE 17.3 mph - N/A   Overcast
2:36 PM 30.2 °F 18.5 °F 17.6 °F 60% 29.81 in 10.0 mi NE 17.3 mph - N/A   Overcast
3:16 PM 28.4 °F 16.6 °F 21.2 °F 74% 29.82 in 10.0 mi NNE 16.1 mph 21.9 mph N/A   Scattered Clouds
3:36 PM 28.4 °F 16.6 °F 23.0 °F 80% 29.82 in 3.0 mi ENE 16.1 mph 20.7 mph N/A   Mostly Cloudy
3:56 PM 28.4 °F 17.5 °F 21.2 °F 74% 29.82 in 10.0 mi NE 13.8 mph 18.4 mph N/A   Mostly Cloudy
4:16 PM 28.4 °F 15.1 °F 21.2 °F 74% 29.82 in 2.5 mi NE 20.7 mph 25.3 mph N/A   Mostly Cloudy
4:36 PM 28.4 °F 17.5 °F 24.8 °F 86% 29.82 in 1.0 mi NE 13.8 mph - N/A   Overcast
4:56 PM 28.4 °F 14.4 °F 17.6 °F 64% 29.81 in 10.0 mi ENE 23.0 mph 27.6 mph N/A   Mostly Cloudy
5:16 PM 28.4 °F 16.2 °F 26.6 °F 93% 29.81 in 10.0 mi NNE 17.3 mph 23.0 mph N/A   Overcast
5:36 PM 28.4 °F 15.1 °F 21.2 °F 74% 29.82 in 1.5 mi NE 20.7 mph 26.5 mph N/A   Overcast
5:56 PM 28.4 °F 15.4 °F 21.2 °F 74% 29.81 in 9.0 mi NNE 19.6 mph 27.6 mph N/A   Overcast
6:16 PM 28.4 °F 15.4 °F 21.2 °F 74% 29.81 in 10.0 mi NNE 19.6 mph 26.5 mph N/A   Overcast
6:36 PM 28.4 °F 14.4 °F 21.2 °F 74% 29.81 in 10.0 mi NNE 23.0 mph - N/A   Mostly Cloudy
6:56 PM 28.4 °F 15.4 °F 19.4 °F 69% 29.82 in 10.0 mi NE 19.6 mph 27.6 mph N/A   Scattered Clouds
7:16 PM 28.4 °F 15.4 °F 21.2 °F 74% 29.82 in 10.0 mi NE 19.6 mph 24.2 mph N/A   Mostly Cloudy
7:36 PM 28.4 °F 15.4 °F 23.0 °F 80% 29.83 in 10.0 mi NNE 19.6 mph 23.0 mph N/A   Mostly Cloudy
7:56 PM 28.4 °F 15.8 °F 26.6 °F 93% 29.83 in 1.0 mi NE 18.4 mph 28.8 mph N/A   Overcast
8:16 PM 28.4 °F 16.6 °F 24.8 °F 86% 29.83 in 10.0 mi NNE 16.1 mph 23.0 mph N/A   Overcast
8:36 PM 28.4 °F 15.4 °F 21.2 °F 74% 29.83 in 3.0 mi NNE 19.6 mph 25.3 mph N/A   Overcast
8:56 PM 28.4 °F 14.4 °F 21.2 °F 74% 29.82 in 8.0 mi NNE 23.0 mph 32.2 mph N/A   Overcast
9:16 PM 28.4 °F 14.4 °F 21.2 °F 74% 29.82 in 10.0 mi NNE 23.0 mph 31.1 mph N/A   Overcast
9:36 PM 28.4 °F 14.1 °F 23.0 °F 80% 29.83 in 10.0 mi NNE 24.2 mph 29.9 mph N/A   Mostly Cloudy
9:56 PM 28.4 °F 15.4 °F 19.4 °F 69% 29.84 in 10.0 mi NNE 19.6 mph 29.9 mph N/A   Overcast
10:16 PM 28.4 °F 14.4 °F 19.4 °F 69% 29.84 in 10.0 mi NNE 23.0 mph 28.8 mph N/A   Overcast
10:36 PM 28.4 °F 14.7 °F 19.4 °F 69% 29.85 in 10.0 mi NNE 21.9 mph 32.2 mph N/A   Overcast
10:56 PM 28.4 °F 14.7 °F 19.4 °F 69% 29.85 in 10.0 mi NNE 21.9 mph 26.5 mph N/A   Overcast
11:16 PM 28.4 °F 15.8 °F 19.4 °F 69% 29.86 in 10.0 mi NNE 18.4 mph 26.5 mph N/A   Overcast
11:36 PM 28.4 °F 15.8 °F 19.4 °F 69% 29.86 in 10.0 mi NNE 18.4 mph 23.0 mph N/A   Overcast
11:56 PM 28.4 °F 15.1 °F 21.2 °F 74% 29.86 in 10.0 mi North 20.7 mph 26.5 mph N/A   Overcast